DELTA 1 DEB, 12534

Orbit data source: Space-Track

DELTA 1 DEB, 12534 is space debris in SSO originally from a launch on Thu, 29 Jul 1976 UTC launched from the Air Force Western Test Range (AFWTR). Debris objects in space refer to the collection of defunct objects orbiting the Earth. Examples of debris include non-operational satellites, rocket bodies, and fragments generated from explosions, collisions, or faulty payload assembly.

Loading next visibility...
Identifier
12534, 1976-077DP
Orbit
SSO
Country
Flag of USUS
Related business
Manufacturer
Unknown
Mission
Spacecraft
Bus & Motor
Unknown
Mass
Unknown
Launch date (UTC)
1976-07-29 (50 years ago)
Launch vehicle
Unknown
Launch site
Air Force Western Test Range (AFWTR)
Object type
Payload
Rocket body
Debris
Shape & HBR
Unknown shape, 0.2 m
Radar Cross Section
Small (<0.1 m²)

Expand to show TLE details & history
Last TLE update: 4 hours ago

TLE from 4 hours ago
0 DELTA 1 DEB
1 12534U 76077DP  26119.16402314 -.00000369  00000-0 -25066-2 0  9993
2 12534 102.0140 187.8463 0069424 168.6236 217.4926 12.37152213163197
Epoch: 2026-04-29T03:56Z
TLE epoch observation values (Epoch: 2026-04-29T03:56:11.599Z)
Latitude
25.06306°
Longitude
-94.01476°
Altitude
1,565.053 km
Speed
7.068 km/s
True Right ascension
12h 08m 38s
True Declination
24° 56' 41"
Sunlit
Object was in full shadow at epoch
Visualization orbit readout
Latitude
Unknown
Longitude
Unknown
Altitude
Unknown
Speed
Unknown
Apparent Right ascension
Unknown
Apparent Declination
Unknown
Sunlit
N/A
Visualization observer readout
Local Sidereal Time
15:32:27
Azimuth
Unknown
Elevation
Unknown
Doppler factor
Unknown
Orbital elements
Apogee altitude
1,571.084 km
Perigee altitude
1,461.471 km
Semi-major axis
7,894.414 km
Eccentricity
0.00694
Inclination
102.014°
RAAN
187.8463°
Arg. of periapsis
168.6236°
True anomaly
217.0117°
Mean anomaly
217.4926°
Eccentric anomaly
217.25182°
Mean motion
3.09431 °/min
Orbital period
116.34 mins
BSTAR
-0.0025066
Loading maneuver chart data...
Computing Atmospheric mass density...
Loading historical data...
Loading historical data...
Loading historical data...
Loading historical data...
Loading historical data...
Loading historical data...
Loading historical data...

Documentation

Showing up to 5 results
|